Regional Weather Roundup
Issued by NWS Jackson, KY

Home | Current Version | Previous Version | Graphics & Text | Print | Product List | Glossary On
Versions: 1 2 3 4 5 6 7 8 9 10 11 12 13 14 15 16 17 18 19 20 21 22 23 24 25 26 27 28 29 30 31 32 33 34 35 36 37 38 39 40 41 42 43 44 45 46 47 48 49 50
000
ASUS43 KJKL 030610
RWRJKL

EAST KENTUCKY HOURLY WEATHER ROUNDUP
NATIONAL WEATHER SERVICE JACKSON KY
200 AM EDT THU SEP 03 2015

NOTE: "FAIR" INDICATES FEW OR NO CLOUDS BELOW 12,000 FEET WITH
NO SIGNIFICANT WEATHER AND/OR OBSTRUCTIONS TO VISIBILITY.

* THESE REPORTS ARE NOT UNDER NWS QUALITY CONTROL AND MAY NOT
  REPORT WEATHER SUCH AS PRECIPITATION AND FOG.

KYZ079-080-083-085-087-088-110-112-115-119-120-030700
...EASTERN KENTUCKY...

CITY           SKY/WX    TMP DP  RH WIND       PRES   REMARKS
JACKSON          N/A     73  66  78 CALM      30.06F
6HR MIN TEMP:  70; 6HR MAX TEMP:  79;

LONDON           N/A     70  64  81 CALM      30.06F
6HR MIN TEMP:  69; 6HR MAX TEMP:  83;

SOMERSET*        N/A     64  64 100 CALM      30.06F FOG
MONTICELLO*      N/A     64  64 100 CALM      30.08F FOG
6HR MIN TEMP:  64; 6HR MAX TEMP:  78;

WILLIAMSBURG*  CLEAR     63  63 100 CALM      30.06F
MIDDLESBORO*     N/A     66  66  97 CALM      30.07F
6HR MIN TEMP:  66; 6HR MAX TEMP:  77;

HARLAN APT*      N/A     64  64 100 MISG      30.08F
HAZARD APT*    CLEAR     68  68 100 CALM      30.06F FOG
BLACK MTN*       N/A     64  61  88 N5          N/A
PIKEVILLE APT* CLEAR     70  68  94 CALM      30.06F
BIG SANDY*       N/A     69  67  96 CALM      30.05S
6HR MIN TEMP:  69; 6HR MAX TEMP:  76;

MOREHEAD APT*    N/A     68  66  94 CALM      30.06S FOG
$$

KYZ035-036-041-042-044-050-067-078-099-030700
...CENTRAL KENTUCKY...

CITY           SKY/WX    TMP DP  RH WIND       PRES   REMARKS
MT STERLING*     N/A     66  66 100 CALM      30.06S FOG
FLEMING/MASON* CLEAR     68  68 100 NW3       30.05S FOG
DANVILLE*        N/A     64  64 100 CALM      30.06S
RICHMOND*        N/A     68  64  88 CALM      30.04F
LEXINGTON        N/A     70  67  90 CALM      30.04F FOG
6HR MIN TEMP:  69; 6HR MAX TEMP:  82;

FRANKFORT        N/A     69  66  90 NW3       30.03F FOG
6HR MIN TEMP:  69; 6HR MAX TEMP:  82;

$$

KYZ091>093-OHZ055-061-077-WVZ005-015-034-035-042-030700
...SOUTHERN OHIO/WEST VIRGINIA...

CITY           SKY/WX    TMP DP  RH WIND       PRES   REMARKS
COVINGTON      MOCLDY    71  67  87 SW3       30.03F
COLUMBUS       CLOUDY    72  67  84 S3        30.01F
DAYTON           N/A     70  68  93 SE5       30.05F
WILMINGTON       N/A     67  64  90 CALM      30.04F
HUNTINGTON       N/A     68  68 100 CALM      30.02F FOG
CHARLESTON       N/A     69  67  93 CALM      30.03F
PINEVILLE*       N/A     64  64 100 MISG      30.13F FOG
BECKLEY          N/A     64  61  90 CALM      30.11F
BLUEFIELD        N/A     68  61  78 W3        30.14F
$$

VAZ002-007-008-TNZ017-027-036-066-071-030700
...SOUTHWEST VIRGINIA/EAST TENNESSEE...

CITY           SKY/WX    TMP DP  RH WIND       PRES   REMARKS
WISE*            N/A     66  64  94 CALM      30.14F
JONESVILLE*      N/A     66  64  94 CALM      30.09F
ABINGDON*        N/A     67  62  83 CALM      30.10F
BRISTOL          N/A     66  64  93 CALM      30.07F
KNOXVILLE      CLOUDY    73  71  93 CALM      30.02F
OAK RIDGE        N/A     72  70  93 CALM      30.04F
CROSSVILLE       N/A     71  68  90 CALM      30.08F
NASHVILLE      MOCLDY    76  70  82 CALM      30.02S
$$

...KEY TO REMARKS...
VSB - VISIBILITY IN MILES
WCI - WIND CHILL INDEX
HX  - HEAT INDEX

$$


USA.gov is the U.S. government's official web portal to all federal, state and local government web resources and services.